[[{"header":{"parameterUnit":"m.s-1","parameterCategory":2,"la1":30.2991,"la2":30.254,"lo1":-89.0895,"lo2":-89.0444,"dy":0.0017,"dx":0.0017,"nx":28,"ny":28,"refTime":"2024-06-16T03:00:00:Z","depth":"0","parameterNumber":2,"parameterNumberName":"U-component_of_CURRENTS"},"data":[0,0,0,0,0,0,0,0,0,0,0,0,0,0,0,0,0,0,0,0,0,0,0,0,0,0,0,0,0,0,0,0,0,0,0,0,0,0,0,0,0,0,0,0,0,0,0,0,0,0,0,0,0,0,0,0,0,0,-0.2253,-0.2254,0,-0.2282,-0.2282,-0.2282,-0.2261,-0.226,-0.226,-0.2259,-0.2262,-0.2263,-0.2263,0,0,0,0,0,0,0,0,0,0,0,0,0,-0.2165,-0.2166,-0.2253,-0.2254,-0.2255,-0.2282,-0.2282,-0.2282,-0.2261,-0.226,-0.2259,-0.2259,-0.2262,-0.2263,-0.2263,0,0,0,0,0,0,0,0,0,0,0,0,0,-0.2196,-0.2167,-0.2253,-0.225,-0.225,-0.2282,-0.2282,-0.2282,-0.2261,-0.226,-0.2259,-0.2258,-0.2262,-0.2263,-0.2264,-0.2289,0,0,-0.2267,-0.2267,0,0,0,0,0,0,0,0,-0.2194,-0.2199,-0.225,-0.225,-0.225,-0.227,-0.2252,-0.2284,-0.2261,-0.2253,-0.2259,-0.2258,-0.2265,-0.2266,-0.2269,-0.2289,-0.2289,-0.2267,-0.2267,-0.2268,-0.2268,0,0,0,0,0,0,0,-0.2192,-0.2198,-0.2261,-0.225,-0.2251,-0.2241,-0.2245,-0.2258,-0.2261,-0.2254,-0.2253,-0.2262,-0.2264,-0.2268,-0.2269,-0.2289,-0.2267,-0.2268,-0.2268,-0.2269,-0.2312,-0.2312,0,0,0,0,0,0,-0.2198,-0.2196,-0.226,-0.2262,-0.2223,-0.2244,-0.2248,-0.2262,-0.2262,-0.2262,-0.2263,-0.2261,-0.2267,-0.2268,-0.2269,-0.2295,-0.2268,-0.2269,-0.2269,-0.2311,-0.2312,-0.2313,0,0,0,0,0,0,-0.2196,-0.2203,-0.2259,-0.2232,-0.2239,-0.2247,-0.2263,-0.2263,-0.2267,-0.2269,-0.2268,-0.2267,-0.2266,-0.2267,-0.2276,-0.2295,-0.2269,-0.227,-0.2311,-0.2311,-0.2312,-0.2349,0,0,0,0,0,0,-0.2193,-0.2202,-0.221,-0.2233,-0.2241,-0.2286,-0.2264,-0.2264,-0.2275,-0.2273,-0.2273,-0.2272,-0.2265,-0.2275,-0.2277,-0.2296,-0.2271,-0.231,-0.2311,-0.2312,-0.2347,-0.2351,-0.2354,0,0,0,0,0,-0.219,-0.2209,-0.2211,-0.2218,-0.2253,-0.2287,-0.2291,-0.229,-0.2276,-0.2287,-0.2277,-0.2272,-0.2283,-0.2276,-0.2279,-0.2298,-0.2309,-0.2311,-0.2312,-0.2346,-0.235,-0.2354,0,0,0,0,0,0,-0.2173,-0.221,-0.2212,-0.224,-0.2265,-0.2285,-0.2294,-0.2296,-0.2297,-0.2289,-0.2281,-0.2281,-0.2296,-0.2291,-0.2284,-0.2312,-0.2295,-0.2297,-0.232,-0.2324,-0.2328,-0.2336,-0.2272,0,0,0,0,0,-0.2175,-0.2197,-0.2231,-0.2251,-0.2266,-0.228,-0.2291,-0.2296,-0.2304,-0.2303,-0.2303,-0.2299,-0.2305,-0.2309,-0.2313,-0.2332,-0.2326,-0.2345,-0.2349,-0.2352,-0.2359,-0.2359,-0.2364,-0.2317,-0.2317,-0.2317,0,0,-0.2172,-0.2196,-0.2206,-0.2249,-0.2264,-0.2295,-0.2284,-0.2308,-0.2329,-0.2305,-0.2323,-0.2315,-0.2312,-0.2329,-0.2336,-0.2327,-0.2362,-0.2353,-0.2356,-0.2362,-0.2361,-0.2366,-0.237,-0.2317,-0.2317,-0.2317,0,0,-0.2184,-0.2201,-0.2226,-0.2253,-0.2288,-0.2303,-0.2313,-0.2339,-0.2344,-0.2364,-0.2349,-0.2351,-0.2361,-0.2363,-0.2364,-0.2393,-0.2381,-0.2394,-0.2421,-0.2421,-0.2425,-0.2428,-0.2426,-0.2428,-0.2395,-0.2395,-0.2396,0,-0.2177,-0.2215,-0.2238,-0.2274,-0.2295,-0.231,-0.2342,-0.2359,-0.2381,-0.2389,-0.2373,-0.2384,-0.2379,-0.2402,-0.2406,-0.2403,-0.2397,-0.2405,-0.2426,-0.2429,-0.2432,-0.2428,-0.2431,-0.2397,-0.2397,-0.2397,-0.2397,0,-0.2213,-0.2243,-0.2261,-0.2309,-0.2337,-0.2366,-0.2401,-0.2421,-0.2422,-0.2432,-0.2451,-0.2441,-0.2443,-0.2446,-0.2434,-0.2457,-0.2444,-0.2431,-0.2416,-0.2439,-0.2434,-0.2436,-0.24,-0.2399,-0.2399,-0.2398,0,0,-0.2191,-0.227,-0.2273,-0.2301,-0.2356,-0.2384,-0.2426,-0.2465,-0.2485,-0.2496,-0.2518,-0.2521,-0.2506,-0.2506,-0.2494,-0.2497,-0.2508,-0.2473,-0.2472,-0.2472,-0.2506,-0.2454,-0.2451,-0.2495,-0.2496,-0.2496,-0.2494,0,-0.2206,-0.2271,-0.231,-0.2363,-0.2398,-0.2432,-0.2471,-0.2507,-0.2524,-0.2549,-0.2547,-0.2558,-0.2533,-0.2529,-0.253,-0.2514,-0.2515,-0.251,-0.2482,-0.2481,-0.2433,-0.2452,-0.2409,-0.2399,-0.2496,-0.2496,-0.2496,0,-0.222,-0.2265,-0.232,-0.2393,-0.2411,-0.2442,-0.2497,-0.2536,-0.2578,-0.2591,-0.2602,-0.2598,-0.2608,-0.2578,-0.2568,-0.2564,-0.2539,-0.2525,-0.2524,-0.2466,-0.2433,-0.2391,-0.2399,-0.2393,-0.2499,-0.2499,-0.2499,0,-0.2184,-0.2267,-0.2307,-0.2333,-0.2418,-0.2442,-0.2481,-0.2535,-0.2564,-0.261,-0.2625,-0.2639,-0.2634,-0.2619,-0.2576,-0.2576,-0.2558,-0.2552,-0.2486,-0.2482,-0.2435,-0.2425,-0.2434,-0.2546,-0.2546,-0.2546,-0.2546,0,-0.2179,-0.2209,-0.229,-0.2312,-0.2351,-0.2423,-0.2458,-0.2505,-0.2564,-0.2594,-0.2631,-0.2649,-0.2641,-0.2626,-0.2595,-0.2538,-0.2567,-0.2496,-0.248,-0.2445,-0.2437,-0.2419,-0.2435,-0.2546,-0.2546,-0.2546,-0.2546,0,-0.2124,-0.2183,-0.2227,-0.2311,-0.2332,-0.2354,-0.2429,-0.2464,-0.2529,-0.2571,-0.2586,-0.2646,-0.2635,-0.2614,-0.2587,-0.2547,-0.2475,-0.248,-0.2436,-0.2414,-0.235,-0.237,-0.2332,-0.2257,-0.2425,-0.2424,-0.2423,0,-0.2101,-0.2117,-0.2194,-0.2213,-0.2244,-0.2289,-0.2326,-0.2419,-0.2459,-0.2561,-0.258,-0.2605,-0.2608,-0.2559,-0.2502,-0.2444,-0.2419,-0.2364,-0.2356,-0.2345,-0.2355,-0.234,-0.2278,-0.2313,-0.2311,-0.2309,-0.2308,0,-0.204,-0.2061,-0.2095,-0.2133,-0.217,-0.2212,-0.2272,-0.23,-0.2415,-0.2467,-0.2534,-0.2555,-0.2541,-0.2483,-0.2406,-0.2354,-0.2323,-0.2329,-0.2334,-0.2283,-0.2253,-0.2172,-0.2319,-0.2294,-0.2296,-0.2297,-0.2297,-0.2298,-0.1971,-0.1972,-0.2011,-0.2035,-0.2079,-0.2113,-0.2108,-0.2201,-0.2253,-0.2322,-0.2423,-0.2459,-0.2474,-0.2375,-0.2311,-0.2219,-0.2215,-0.2178,-0.2208,-0.2198,-0.2109,-0.2219,-0.2161,-0.2162,-0.2162,-0.2163,-0.2163,0,-0.188,-0.1893,-0.1915,-0.1941,-0.1942,-0.2,-0.2054,-0.2039,-0.2066,-0.2197,-0.2249,-0.2355,-0.231,-0.2306,-0.2241,-0.2144,-0.2064,-0.2085,-0.2077,-0.2019,-0.2137,-0.2115,-0.2023,-0.2023,-0.2023,-0.2023,-0.2023,-0.2023,-0.1833,-0.1815,-0.1827,-0.1787,-0.1802,-0.1762,-0.1762,-0.177,-0.1829,-0.1912,-0.2033,-0.2176,-0.2199,-0.2381,-0.2268,-0.2155,-0.2064,-0.2009,-0.1975,-0.2108,-0.212,-0.2131,-0.2114,-0.2023,-0.2023,-0.1795,-0.1794,-0.1793]},{"header":{"parameterUnit":"m.s-1","parameterCategory":2,"la1":30.2991,"la2":30.254,"lo1":-89.0895,"lo2":-89.0444,"dy":0.0017,"dx":0.0017,"nx":28,"ny":28,"refTime":"2024-06-16T03:00:00:Z","depth":"0","parameterNumber":3,"parameterNumberName":"V-component_of_CURRENTS"},"data":[0,0,0,0,0,0,0,0,0,0,0,0,0,0,0,0,0,0,0,0,0,0,0,0,0,0,0,0,0,0,0,0,0,0,0,0,0,0,0,0,0,0,0,0,0,0,0,0,0,0,0,0,0,0,0,0,0,0,-0.0183,-0.0182,0,-0.0111,-0.011,-0.0109,-0.0057,-0.0056,-0.0056,-0.0056,0.0097,0.0101,0.0105,0,0,0,0,0,0,0,0,0,0,0,0,0,-0.0222,-0.0222,-0.0183,-0.0182,-0.0181,-0.0111,-0.011,-0.0108,-0.0057,-0.0056,-0.0056,-0.0055,0.0096,0.01,0.0105,0,0,0,0,0,0,0,0,0,0,0,0,0,-0.0182,-0.0222,-0.0183,-0.0148,-0.0144,-0.0111,-0.011,-0.0108,-0.0057,-0.0056,-0.0056,-0.0055,0.0095,0.01,0.0106,0.013,0,0,0.0123,0.0125,0,0,0,0,0,0,0,0,-0.0185,-0.0181,-0.0154,-0.015,-0.0146,-0.0093,-0.0067,-0.0025,-0.0057,-0.0089,-0.0056,-0.0055,0.004,0.005,0.0063,0.0138,0.0144,0.0123,0.0127,0.0129,0.0131,0,0,0,0,0,0,0,-0.0187,-0.0183,-0.0153,-0.0153,-0.0148,-0.0117,-0.0111,-0.0059,-0.0026,-0.0086,-0.0082,-0.0076,0.0043,0.0057,0.0067,0.0146,0.0123,0.0128,0.0132,0.0134,0.0254,0.0254,0,0,0,0,0,0,-0.0202,-0.0186,-0.0155,-0.0151,-0.0165,-0.0117,-0.011,-0.011,-0.0028,-0.0016,-0.0077,-0.0074,0.0048,0.0061,0.0073,0.0113,0.0129,0.0134,0.0138,0.0254,0.0254,0.0254,0,0,0,0,0,0,-0.0203,-0.02,-0.0158,-0.0167,-0.016,-0.0117,-0.0116,-0.0108,-0.0093,-0.0022,-0.0008,-0.007,0.0048,0.0065,0.0116,0.0119,0.0137,0.0142,0.0255,0.0254,0.0254,0.019,0,0,0,0,0,0,-0.0205,-0.0201,-0.0206,-0.0169,-0.016,-0.0146,-0.0117,-0.0107,-0.0091,-0.0086,-0.0011,0.0003,0.005,0.0107,0.0122,0.0127,0.0147,0.0255,0.0254,0.0254,0.0192,0.0187,0.0183,0,0,0,0,0,-0.0206,-0.0219,-0.0207,-0.0204,-0.0169,-0.0146,-0.0139,-0.0106,-0.0091,-0.0089,-0.0038,0.0001,0.0115,0.0112,0.0129,0.0136,0.0255,0.0255,0.0254,0.0194,0.0188,0.0183,0,0,0,0,0,0,-0.0238,-0.0214,-0.02,-0.0205,-0.018,-0.0138,-0.0135,-0.0111,-0.007,-0.0065,0.0003,0.0021,0.0065,0.0107,0.0102,0.0168,0.019,0.0193,0.0138,0.0134,0.0129,0.0116,0.0151,0,0,0,0,0,-0.0249,-0.0253,-0.022,-0.0224,-0.0215,-0.0176,-0.0163,-0.0141,-0.0101,-0.0083,-0.0031,0.0025,0.0076,0.0109,0.0157,0.0197,0.0241,0.0211,0.0207,0.0203,0.0202,0.0267,0.0268,0.0252,0.0252,0.0253,0,0,-0.0262,-0.025,-0.0251,-0.0231,-0.021,-0.0207,-0.0167,-0.0154,-0.0142,-0.0071,-0.0039,0.0012,0.0082,0.0124,0.0148,0.0161,0.0228,0.0202,0.0198,0.02,0.0266,0.0268,0.027,0.0252,0.0252,0.0252,0,0,-0.0297,-0.0281,-0.0297,-0.0281,-0.0257,-0.0232,-0.0232,-0.0192,-0.0165,-0.0129,-0.0076,-0.0025,0.0049,0.0102,0.0138,0.0139,0.0199,0.0152,0.0127,0.0189,0.0191,0.0193,0.0241,0.0248,0.0154,0.0154,0.0153,0,-0.0315,-0.0329,-0.0297,-0.0306,-0.0298,-0.0249,-0.0261,-0.0226,-0.0173,-0.0146,-0.0129,-0.0015,0.004,0.0106,0.0102,0.0131,0.0169,0.0141,0.0183,0.0186,0.019,0.0239,0.0248,0.015,0.0151,0.0151,0.0151,0,-0.036,-0.0367,-0.0375,-0.0371,-0.0357,-0.0359,-0.0311,-0.0289,-0.0252,-0.0207,-0.0138,-0.0061,0.0008,0.0033,0.007,0.0123,0.0142,0.0166,0.0195,0.0187,0.024,0.025,0.0146,0.0147,0.0148,0.0149,0,0,-0.0409,-0.041,-0.0411,-0.0421,-0.0392,-0.0388,-0.0366,-0.0326,-0.0302,-0.0236,-0.0194,-0.0106,-0.0056,-0.0013,0.0048,0.0103,0.0156,0.0137,0.0142,0.0181,0.0285,0.0326,0.0341,0.0187,0.0189,0.019,0.0308,0,-0.0454,-0.0495,-0.0472,-0.0499,-0.0516,-0.0463,-0.0447,-0.0399,-0.0337,-0.0282,-0.0182,-0.012,-0.0073,-0.0039,0.0024,0.0128,0.0182,0.0121,0.029,0.0295,0.033,0.0354,0.0404,0.0516,0.0319,0.0321,0.0322,0,-0.0504,-0.0527,-0.0569,-0.0569,-0.0569,-0.0568,-0.0528,-0.0502,-0.0403,-0.0353,-0.0265,-0.0183,-0.0082,-0.0049,0.0125,0.0084,0.0172,0.025,0.0257,0.0326,0.0356,0.0495,0.0543,0.0718,0.0338,0.0337,0.0336,0,-0.0565,-0.0588,-0.0627,-0.0628,-0.0621,-0.0617,-0.06,-0.0523,-0.0497,-0.0387,-0.035,-0.0215,-0.0144,-0.0013,0.0149,0.0138,0.0339,0.0347,0.0468,0.0471,0.0563,0.0572,0.08,0.046,0.046,0.046,0.046,0,-0.0624,-0.0652,-0.0659,-0.0681,-0.0718,-0.0677,-0.0675,-0.0633,-0.056,-0.0525,-0.0389,-0.0322,-0.0133,0.0009,0.0144,0.0347,0.0341,0.0473,0.0512,0.0541,0.0546,0.0742,0.0803,0.0464,0.0463,0.0462,0.0462,0,-0.0683,-0.0689,-0.0735,-0.0745,-0.0751,-0.077,-0.075,-0.074,-0.0657,-0.0605,-0.0576,-0.0397,-0.0198,-0.0003,0.0226,0.0344,0.064,0.0594,0.0609,0.0647,0.0908,0.0961,0.1203,0.1293,0.0746,0.0748,0.075,0,-0.0718,-0.0751,-0.0794,-0.0828,-0.0834,-0.0851,-0.0864,-0.0803,-0.078,-0.0642,-0.0621,-0.0419,-0.0257,0.0106,0.0367,0.0631,0.0741,0.0802,0.0792,0.0947,0.1035,0.1062,0.1121,0.0888,0.089,0.0892,0.0894,0,-0.0782,-0.0794,-0.0836,-0.0913,-0.0944,-0.0975,-0.0974,-0.0977,-0.0889,-0.0817,-0.0676,-0.0531,-0.0148,0.0209,0.0555,0.0702,0.0938,0.0852,0.1028,0.1182,0.1213,0.131,0.0771,0.0913,0.0911,0.0909,0.0908,0.0908,-0.0822,-0.0869,-0.0926,-0.0995,-0.1041,-0.1083,-0.1103,-0.107,-0.1031,-0.0907,-0.074,-0.0485,0.0061,0.0584,0.0776,0.1185,0.1116,0.1285,0.1339,0.1355,0.1441,0.0931,0.1103,0.1102,0.1102,0.1101,0.11,0,-0.0873,-0.0928,-0.1005,-0.1083,-0.1149,-0.1148,-0.117,-0.1159,-0.1107,-0.0932,-0.0759,-0.0166,0.0373,0.0858,0.146,0.1668,0.1706,0.1756,0.1826,0.1865,0.1447,0.1453,0.169,0.169,0.169,0.169,0.169,0.1689,-0.09,-0.0988,-0.1034,-0.116,-0.1213,-0.1276,-0.1289,-0.1239,-0.1118,-0.0816,-0.049,-0.0205,0.0523,0.1556,0.2105,0.2132,0.2309,0.2284,0.2369,0.2103,0.2063,0.2025,0.205,0.2408,0.2409,0.2778,0.2782,0.2785]}],[{"header":{"parameterUnit":"m.s-1","parameterCategory":2,"la1":30.2991,"la2":30.254,"lo1":-89.0895,"lo2":-89.0444,"dy":0.0017,"dx":0.0017,"nx":28,"ny":28,"refTime":"2024-06-16T03:00:00:Z","depth":"2","parameterNumber":2,"parameterNumberName":"U-component_of_CURRENTS"},"data":[0,0,0,0,0,0,0,0,0,0,0,0,0,0,0,0,0,0,0,0,0,0,0,0,0,0,0,0,0,0,0,0,0,0,0,0,0,0,0,0,0,0,0,0,0,0,0,0,0,0,0,0,0,0,0,0,0,0,-0.2128,-0.2128,0,-0.2154,-0.2154,-0.2154,-0.2135,-0.2135,-0.2134,-0.2134,-0.2137,-0.2138,-0.2138,0,0,0,0,0,0,0,0,0,0,0,0,0,-0.2045,-0.2046,-0.2128,-0.2128,-0.2129,-0.2154,-0.2154,-0.2154,-0.2135,-0.2135,-0.2134,-0.2133,-0.2137,-0.2138,-0.2138,0,0,0,0,0,0,0,0,0,0,0,0,0,-0.2074,-0.2047,-0.2128,-0.2125,-0.2125,-0.2154,-0.2154,-0.2154,-0.2135,-0.2135,-0.2134,-0.2133,-0.2137,-0.2138,-0.2138,-0.216,0,0,-0.2141,-0.2142,0,0,0,0,0,0,0,0,-0.2072,-0.2076,-0.2125,-0.2125,-0.2126,-0.2143,-0.2126,-0.2156,-0.2136,-0.2128,-0.2134,-0.2133,-0.214,-0.214,-0.2143,-0.216,-0.216,-0.2141,-0.2142,-0.2142,-0.2142,0,0,0,0,0,0,0,-0.207,-0.2075,-0.2135,-0.2126,-0.2126,-0.2117,-0.212,-0.2131,-0.2135,-0.2129,-0.2128,-0.2137,-0.2139,-0.2142,-0.2143,-0.2161,-0.2141,-0.2142,-0.2143,-0.2143,-0.2185,-0.2186,0,0,0,0,0,0,-0.2076,-0.2074,-0.2134,-0.2136,-0.21,-0.2119,-0.2123,-0.2136,-0.2136,-0.2136,-0.2137,-0.2136,-0.2141,-0.2142,-0.2143,-0.2171,-0.2142,-0.2143,-0.2143,-0.2184,-0.2185,-0.2186,0,0,0,0,0,0,-0.2074,-0.2081,-0.2133,-0.2107,-0.2114,-0.2122,-0.2137,-0.2137,-0.2142,-0.2143,-0.2142,-0.2143,-0.214,-0.2142,-0.2151,-0.2171,-0.2143,-0.2144,-0.2184,-0.2185,-0.2185,-0.2226,0,0,0,0,0,0,-0.2071,-0.208,-0.2088,-0.2108,-0.2116,-0.2159,-0.2138,-0.2138,-0.215,-0.2148,-0.2148,-0.2147,-0.214,-0.215,-0.2152,-0.2171,-0.2145,-0.2183,-0.2184,-0.2185,-0.2224,-0.2228,-0.2231,0,0,0,0,0,-0.2068,-0.2087,-0.2089,-0.2096,-0.2128,-0.216,-0.2163,-0.2163,-0.2151,-0.2163,-0.2153,-0.2147,-0.2158,-0.2151,-0.2153,-0.2174,-0.2182,-0.2184,-0.2185,-0.2222,-0.2227,-0.2231,0,0,0,0,0,0,-0.2053,-0.2087,-0.209,-0.2117,-0.2141,-0.2158,-0.2168,-0.217,-0.2172,-0.2165,-0.2157,-0.2156,-0.2172,-0.2167,-0.2159,-0.2188,-0.2169,-0.2171,-0.2196,-0.2201,-0.2205,-0.2212,-0.2146,0,0,0,0,0,-0.2056,-0.2077,-0.2108,-0.2128,-0.2142,-0.2156,-0.2167,-0.2172,-0.218,-0.2179,-0.2179,-0.2176,-0.2181,-0.2185,-0.2188,-0.2208,-0.22,-0.2221,-0.2225,-0.2228,-0.2235,-0.2235,-0.224,-0.219,-0.219,-0.219,0,0,-0.2054,-0.2076,-0.2086,-0.2126,-0.214,-0.217,-0.2159,-0.2184,-0.2205,-0.2181,-0.2199,-0.2193,-0.2188,-0.2206,-0.2213,-0.2203,-0.2239,-0.223,-0.2233,-0.2238,-0.2237,-0.2242,-0.2246,-0.2191,-0.2191,-0.2191,0,0,-0.2066,-0.2083,-0.2107,-0.2133,-0.2167,-0.218,-0.2191,-0.2216,-0.2222,-0.2242,-0.2227,-0.2231,-0.2241,-0.2241,-0.2242,-0.2272,-0.2259,-0.2273,-0.2302,-0.2302,-0.2306,-0.2309,-0.2308,-0.2311,-0.2275,-0.2275,-0.2275,0,-0.206,-0.2097,-0.2118,-0.2152,-0.2173,-0.2188,-0.2219,-0.2236,-0.2258,-0.2266,-0.2252,-0.2264,-0.2259,-0.2281,-0.2286,-0.2283,-0.2277,-0.2285,-0.2307,-0.231,-0.2313,-0.2311,-0.2313,-0.2277,-0.2277,-0.2277,-0.2277,0,-0.2096,-0.2124,-0.2142,-0.2188,-0.2216,-0.2244,-0.2277,-0.2298,-0.2301,-0.2311,-0.2331,-0.2322,-0.2324,-0.2328,-0.2315,-0.2339,-0.2327,-0.2312,-0.2296,-0.2321,-0.2316,-0.2319,-0.228,-0.228,-0.2279,-0.2279,0,0,-0.2076,-0.2151,-0.2154,-0.2182,-0.2235,-0.2261,-0.2303,-0.2342,-0.2363,-0.2375,-0.2397,-0.2402,-0.2388,-0.2388,-0.2376,-0.2379,-0.2393,-0.2356,-0.2355,-0.2357,-0.2392,-0.234,-0.2338,-0.238,-0.238,-0.2381,-0.2381,0,-0.2091,-0.2154,-0.219,-0.2243,-0.2276,-0.231,-0.2348,-0.2384,-0.2401,-0.2427,-0.2426,-0.2438,-0.2415,-0.2412,-0.2413,-0.2398,-0.24,-0.2394,-0.2366,-0.2366,-0.2318,-0.2339,-0.2162,-0.2143,-0.2383,-0.2383,-0.2384,0,-0.2106,-0.2149,-0.2202,-0.2272,-0.2289,-0.232,-0.2375,-0.2413,-0.2456,-0.2469,-0.2482,-0.2479,-0.249,-0.2461,-0.2453,-0.2449,-0.2425,-0.2412,-0.2411,-0.2351,-0.2318,-0.2157,-0.2138,-0.2387,-0.2387,-0.2387,-0.2386,0,-0.2072,-0.2152,-0.2191,-0.2216,-0.2298,-0.2322,-0.2361,-0.2414,-0.2442,-0.249,-0.2505,-0.252,-0.2517,-0.2503,-0.2462,-0.2462,-0.2446,-0.2439,-0.2374,-0.237,-0.2208,-0.2189,-0.2434,-0.2434,-0.2434,-0.2434,-0.2434,0,-0.2068,-0.2097,-0.2176,-0.2197,-0.2237,-0.2305,-0.2341,-0.2387,-0.2445,-0.2475,-0.2513,-0.253,-0.2525,-0.2511,-0.2481,-0.2427,-0.2455,-0.2385,-0.2368,-0.2217,-0.22,-0.24,-0.2396,-0.2434,-0.2434,-0.2434,-0.2434,0,-0.2016,-0.2073,-0.2116,-0.2198,-0.2219,-0.2242,-0.2314,-0.2348,-0.2413,-0.2454,-0.247,-0.2528,-0.2519,-0.25,-0.2475,-0.2436,-0.24,-0.237,-0.2194,-0.2157,-0.2326,-0.2324,-0.232,-0.2318,-0.2317,-0.2315,-0.2314,0,-0.1995,-0.2011,-0.2085,-0.2104,-0.2135,-0.218,-0.2216,-0.2306,-0.2344,-0.2444,-0.246,-0.2487,-0.2487,-0.2441,-0.2362,-0.2301,-0.2353,-0.2117,-0.209,-0.2331,-0.2315,-0.2316,-0.2316,-0.189,-0.1886,-0.1882,-0.1879,0,-0.1937,-0.1958,-0.199,-0.2027,-0.2064,-0.2103,-0.2162,-0.2188,-0.2299,-0.2345,-0.2409,-0.2427,-0.2394,-0.2256,-0.2173,-0.2112,-0.2117,-0.2044,-0.2325,-0.1954,-0.1928,-0.1912,-0.1926,-0.1847,-0.185,-0.1853,-0.1854,-0.1856,-0.1871,-0.1871,-0.1909,-0.1932,-0.1974,-0.2005,-0.2,-0.2076,-0.212,-0.2148,-0.2263,-0.2222,-0.2198,-0.1991,-0.189,-0.1798,-0.1943,-0.1857,-0.1867,-0.1882,-0.1839,-0.1812,-0.1702,-0.1704,-0.1706,-0.1708,-0.171,0,-0.1778,-0.1795,-0.1816,-0.184,-0.1833,-0.1897,-0.1945,-0.1901,-0.1904,-0.1959,-0.1977,-0.1792,-0.172,-0.1692,-0.1512,-0.1489,-0.1456,-0.1426,-0.1381,-0.1415,-0.1444,-0.1379,-0.1119,-0.1118,-0.1116,-0.1114,0,0,-0.1732,-0.171,-0.172,-0.1675,-0.1695,-0.164,-0.1638,-0.1591,-0.1581,-0.1513,-0.1495,-0.1618,-0.1662,-0.1392,-0.1325,-0.1198,-0.1288,-0.1137,-0.1611,-0.1592,-0.1619,-0.1694,-0.1631,0,0,0,0,0]},{"header":{"parameterUnit":"m.s-1","parameterCategory":2,"la1":30.2991,"la2":30.254,"lo1":-89.0895,"lo2":-89.0444,"dy":0.0017,"dx":0.0017,"nx":28,"ny":28,"refTime":"2024-06-16T03:00:00:Z","depth":"2","parameterNumber":3,"parameterNumberName":"V-component_of_CURRENTS"},"data":[0,0,0,0,0,0,0,0,0,0,0,0,0,0,0,0,0,0,0,0,0,0,0,0,0,0,0,0,0,0,0,0,0,0,0,0,0,0,0,0,0,0,0,0,0,0,0,0,0,0,0,0,0,0,0,0,0,0,-0.0208,-0.0207,0,-0.0138,-0.0137,-0.0136,-0.0084,-0.0084,-0.0084,-0.0083,0.0067,0.0071,0.0075,0,0,0,0,0,0,0,0,0,0,0,0,0,-0.0244,-0.0244,-0.0208,-0.0207,-0.0206,-0.0138,-0.0137,-0.0136,-0.0084,-0.0084,-0.0083,-0.0083,0.0066,0.007,0.0075,0,0,0,0,0,0,0,0,0,0,0,0,0,-0.0206,-0.0244,-0.0208,-0.0173,-0.017,-0.0138,-0.0137,-0.0135,-0.0084,-0.0084,-0.0083,-0.0083,0.0065,0.007,0.0075,0.0099,0,0,0.0092,0.0095,0,0,0,0,0,0,0,0,-0.0208,-0.0205,-0.0179,-0.0176,-0.0171,-0.012,-0.0094,-0.0053,-0.0085,-0.0116,-0.0083,-0.0083,0.0011,0.0021,0.0033,0.0106,0.0113,0.0093,0.0096,0.0099,0.01,0,0,0,0,0,0,0,-0.0211,-0.0207,-0.0179,-0.0178,-0.0174,-0.0143,-0.0137,-0.0086,-0.0054,-0.0113,-0.0109,-0.0103,0.0014,0.0028,0.0038,0.0115,0.0093,0.0098,0.0101,0.0103,0.0221,0.0221,0,0,0,0,0,0,-0.0225,-0.021,-0.0181,-0.0177,-0.019,-0.0143,-0.0137,-0.0136,-0.0056,-0.0044,-0.0104,-0.0101,0.0018,0.0031,0.0043,0.0083,0.0099,0.0104,0.0107,0.0221,0.0221,0.0221,0,0,0,0,0,0,-0.0226,-0.0224,-0.0184,-0.0192,-0.0185,-0.0144,-0.0143,-0.0135,-0.012,-0.005,-0.0036,-0.0097,0.0019,0.0035,0.0086,0.0089,0.0106,0.0111,0.0221,0.0221,0.0221,0.0158,0,0,0,0,0,0,-0.0228,-0.0225,-0.023,-0.0194,-0.0185,-0.0172,-0.0143,-0.0134,-0.0118,-0.0113,-0.004,-0.0025,0.0021,0.0077,0.0091,0.0097,0.0116,0.0222,0.0221,0.0221,0.0161,0.0156,0.0152,0,0,0,0,0,-0.023,-0.0243,-0.0231,-0.0227,-0.0194,-0.0173,-0.0166,-0.0133,-0.0118,-0.0116,-0.0066,-0.0028,0.0085,0.0081,0.0098,0.0105,0.0222,0.0221,0.0221,0.0163,0.0157,0.0152,0,0,0,0,0,0,-0.0261,-0.0238,-0.0224,-0.0229,-0.0205,-0.0164,-0.0162,-0.0138,-0.0098,-0.0092,-0.0026,-0.0008,0.0036,0.0077,0.0071,0.0137,0.0158,0.0161,0.0108,0.0103,0.0099,0.0086,0.012,0,0,0,0,0,-0.0272,-0.0276,-0.0244,-0.0248,-0.024,-0.0202,-0.0189,-0.0167,-0.0128,-0.011,-0.0059,-0.0004,0.0046,0.0078,0.0125,0.0165,0.0207,0.0179,0.0175,0.0171,0.0171,0.0233,0.0235,0.0219,0.0219,0.0219,0,0,-0.0285,-0.0273,-0.0275,-0.0255,-0.0235,-0.0232,-0.0193,-0.018,-0.0168,-0.0099,-0.0067,-0.0017,0.0052,0.0093,0.0116,0.013,0.0195,0.017,0.0166,0.0169,0.0233,0.0235,0.0236,0.0219,0.0219,0.0219,0,0,-0.0319,-0.0304,-0.032,-0.0304,-0.0281,-0.0257,-0.0256,-0.0218,-0.0191,-0.0156,-0.0103,-0.0053,0.002,0.0072,0.0108,0.0109,0.0167,0.0121,0.0097,0.0158,0.0159,0.0162,0.0207,0.0214,0.0123,0.0123,0.0123,0,-0.0337,-0.0351,-0.032,-0.0329,-0.0321,-0.0273,-0.0284,-0.025,-0.0198,-0.0172,-0.0156,-0.0044,0.0011,0.0076,0.0073,0.0101,0.0138,0.0111,0.0152,0.0155,0.0159,0.0205,0.0213,0.012,0.012,0.0121,0.0121,0,-0.0381,-0.0388,-0.0396,-0.0392,-0.0378,-0.038,-0.0334,-0.0312,-0.0275,-0.0231,-0.0164,-0.0088,-0.002,0.0004,0.0041,0.0093,0.0112,0.0135,0.0163,0.0156,0.0206,0.0215,0.0116,0.0117,0.0118,0.0118,0,0,-0.0429,-0.043,-0.0431,-0.0441,-0.0412,-0.0408,-0.0386,-0.0347,-0.0324,-0.026,-0.0219,-0.0131,-0.0083,-0.004,0.002,0.0075,0.0126,0.0108,0.0112,0.0149,0.025,0.0288,0.0303,0.0156,0.0158,0.0159,0.0271,0,-0.0473,-0.0514,-0.0491,-0.0517,-0.0534,-0.0481,-0.0466,-0.0418,-0.0358,-0.0305,-0.0207,-0.0147,-0.0099,-0.0066,-0.0003,0.0098,0.015,0.0093,0.0255,0.026,0.0292,0.0316,0.0254,0.0351,0.0281,0.0283,0.0284,0,-0.0522,-0.0544,-0.0585,-0.0585,-0.0585,-0.0584,-0.0546,-0.052,-0.0423,-0.0374,-0.0289,-0.0209,-0.011,-0.0076,0.0093,0.0054,0.014,0.0216,0.0223,0.0289,0.0317,0.035,0.0372,0.0301,0.03,0.0299,0.0298,0,-0.0582,-0.0603,-0.0642,-0.0643,-0.0635,-0.0632,-0.0615,-0.054,-0.0515,-0.0409,-0.0374,-0.0242,-0.0173,-0.0044,0.0115,0.0105,0.0299,0.0309,0.0425,0.0428,0.0424,0.0424,0.0419,0.0419,0.0419,0.0419,0.0418,0,-0.0639,-0.0666,-0.0674,-0.0695,-0.0731,-0.0691,-0.069,-0.0649,-0.0579,-0.0545,-0.0413,-0.0349,-0.0162,-0.0025,0.0109,0.0305,0.03,0.043,0.0467,0.0399,0.0396,0.0392,0.0387,0.0423,0.0422,0.0421,0.0421,0,-0.0697,-0.0703,-0.0748,-0.0757,-0.0764,-0.0783,-0.0763,-0.0755,-0.0675,-0.0626,-0.0598,-0.0425,-0.0232,-0.004,0.0184,0.03,0.0479,0.0544,0.0447,0.0472,0.0563,0.0554,0.0685,0.0687,0.0689,0.0691,0.0692,0,-0.0731,-0.0763,-0.0806,-0.0839,-0.0845,-0.0862,-0.0876,-0.0817,-0.0796,-0.0665,-0.0645,-0.045,-0.0294,0.0059,0.0294,0.0547,0.0545,0.0627,0.0605,0.0571,0.0594,0.0582,0.057,0.0568,0.0568,0.0568,0.0568,0,-0.0794,-0.0806,-0.0847,-0.0923,-0.0954,-0.0985,-0.0986,-0.099,-0.0905,-0.0837,-0.0702,-0.0564,-0.0212,0.0074,0.0403,0.0533,0.0584,0.0642,0.065,0.0511,0.0471,0.049,0.048,0.0571,0.057,0.057,0.057,0.057,-0.0833,-0.088,-0.0936,-0.1005,-0.105,-0.1092,-0.1113,-0.1082,-0.1045,-0.0928,-0.0775,-0.0548,-0.0245,0.0218,0.0458,0.066,0.0663,0.0695,0.069,0.0685,0.0653,0.0619,0.074,0.074,0.0741,0.0741,0.0742,0,-0.0883,-0.0939,-0.1014,-0.1091,-0.1155,-0.1157,-0.1179,-0.1164,-0.1114,-0.097,-0.081,-0.0489,-0.0141,0.0167,0.0501,0.0717,0.0677,0.073,0.0638,0.0634,0.0631,0.0592,0.0665,0.0666,0.0666,0.0667,0,0,-0.091,-0.0996,-0.1041,-0.1164,-0.1218,-0.1277,-0.129,-0.1235,-0.1134,-0.0988,-0.0819,-0.0557,-0.0155,0.007,0.0342,0.0514,0.0506,0.0511,0.0546,0.0398,0.0393,0.0582,0.0515,0,0,0,0,0]}],[{"header":{"parameterUnit":"m.s-1","parameterCategory":2,"la1":30.2991,"la2":30.254,"lo1":-89.0895,"lo2":-89.0444,"dy":0.0017,"dx":0.0017,"nx":28,"ny":28,"refTime":"2024-06-16T03:00:00:Z","depth":"4","parameterNumber":2,"parameterNumberName":"U-component_of_CURRENTS"},"data":[0,0,0,0,0,0,0,0,0,0,0,0,0,0,0,0,0,0,0,0,0,0,0,0,0,0,0,0,0,0,0,0,0,0,0,0,0,0,0,0,0,0,0,0,0,0,0,0,0,0,0,0,0,0,0,0,0,0,-0.1433,-0.1434,0,-0.1489,-0.1489,-0.149,-0.1521,-0.1521,-0.1521,-0.1522,-0.1584,-0.1585,-0.1587,0,0,0,0,0,0,0,0,0,0,0,0,0,-0.1341,-0.1343,-0.1433,-0.1434,-0.1435,-0.1489,-0.1489,-0.149,-0.1521,-0.1521,-0.1522,-0.1522,-0.1584,-0.1585,-0.1587,0,0,0,0,0,0,0,0,0,0,0,0,0,-0.1386,-0.1343,-0.1433,-0.1458,-0.1461,-0.1489,-0.1489,-0.149,-0.1521,-0.1521,-0.1522,-0.1522,-0.1583,-0.1585,-0.1587,-0.1591,0,0,-0.1593,-0.1594,0,0,0,0,0,0,0,0,-0.1383,-0.1389,-0.1453,-0.1456,-0.146,-0.15,-0.148,-0.1525,-0.1521,-0.1496,-0.1522,-0.1522,-0.1558,-0.1562,-0.1568,-0.1594,-0.1597,-0.1594,-0.1595,-0.1596,-0.1596,0,0,0,0,0,0,0,-0.138,-0.1386,-0.1453,-0.1454,-0.1458,-0.1463,-0.147,-0.1489,-0.1522,-0.1498,-0.1501,-0.151,-0.1559,-0.1566,-0.157,-0.1598,-0.1594,-0.1595,-0.1597,-0.1598,-0.1688,-0.1689,0,0,0,0,0,0,-0.1378,-0.1384,-0.1451,-0.1455,-0.1424,-0.1465,-0.1472,-0.1485,-0.1522,-0.1528,-0.151,-0.1512,-0.1562,-0.1568,-0.1572,-0.1644,-0.1596,-0.1598,-0.1599,-0.1687,-0.1688,-0.1689,0,0,0,0,0,0,-0.1376,-0.1383,-0.1449,-0.1422,-0.1431,-0.1466,-0.148,-0.1486,-0.152,-0.1531,-0.1538,-0.1542,-0.1563,-0.1569,-0.161,-0.1644,-0.1599,-0.1601,-0.1685,-0.1687,-0.1689,-0.1747,0,0,0,0,0,0,-0.1373,-0.1382,-0.1402,-0.1422,-0.1432,-0.1486,-0.148,-0.1487,-0.1525,-0.1528,-0.156,-0.1565,-0.1564,-0.1607,-0.1612,-0.1646,-0.1602,-0.1684,-0.1686,-0.1688,-0.1743,-0.175,-0.1756,0,0,0,0,0,-0.1369,-0.1391,-0.1402,-0.1411,-0.1454,-0.1487,-0.1494,-0.1517,-0.1526,-0.1548,-0.1567,-0.1565,-0.1624,-0.161,-0.1615,-0.1651,-0.1683,-0.1685,-0.1688,-0.174,-0.1749,-0.1756,0,0,0,0,0,0,-0.1362,-0.1397,-0.141,-0.1442,-0.1473,-0.1494,-0.1519,-0.1534,-0.1566,-0.1576,-0.1581,-0.1588,-0.1636,-0.1634,-0.1618,-0.1682,-0.1653,-0.1657,-0.1691,-0.1699,-0.1705,-0.1705,-0.1604,0,0,0,0,0,-0.1369,-0.1396,-0.1428,-0.1456,-0.1474,-0.1502,-0.1523,-0.1542,-0.1567,-0.1583,-0.1605,-0.1626,-0.1646,-0.1666,-0.1682,-0.172,-0.1707,-0.1746,-0.1752,-0.1757,-0.1761,-0.1764,-0.1771,-0.1698,-0.1698,-0.1698,0,0,-0.1373,-0.1397,-0.1414,-0.1457,-0.1482,-0.1517,-0.1516,-0.1558,-0.1593,-0.1584,-0.1643,-0.1653,-0.1661,-0.1702,-0.1723,-0.1709,-0.1772,-0.1761,-0.1765,-0.1766,-0.1767,-0.1774,-0.178,-0.1699,-0.1699,-0.1699,0,0,-0.139,-0.142,-0.1448,-0.1479,-0.1526,-0.1545,-0.1564,-0.1605,-0.1633,-0.1681,-0.1683,-0.1712,-0.1751,-0.1761,-0.1769,-0.1821,-0.1805,-0.1831,-0.1869,-0.1872,-0.1878,-0.1883,-0.1879,-0.1883,-0.1836,-0.1836,-0.1836,0,-0.1397,-0.1435,-0.1462,-0.1498,-0.1529,-0.1561,-0.16,-0.1633,-0.1684,-0.1708,-0.1711,-0.1766,-0.1777,-0.1817,-0.1835,-0.1837,-0.1831,-0.184,-0.188,-0.1885,-0.1889,-0.1883,-0.1887,-0.1839,-0.1839,-0.1839,-0.1838,0,-0.1428,-0.147,-0.1491,-0.1547,-0.1584,-0.1624,-0.167,-0.1715,-0.1749,-0.1774,-0.1831,-0.1843,-0.187,-0.1884,-0.1877,-0.1918,-0.1903,-0.1886,-0.186,-0.19,-0.1891,-0.1894,-0.1844,-0.1843,-0.1842,-0.1841,0,0,-0.1407,-0.1496,-0.1506,-0.1543,-0.1615,-0.1646,-0.1712,-0.1771,-0.1812,-0.186,-0.1906,-0.1944,-0.1947,-0.1955,-0.1956,-0.1966,-0.1992,-0.1945,-0.1944,-0.1939,-0.1997,-0.1865,-0.1855,-0.1984,-0.1985,-0.1985,-0.1981,0,-0.1424,-0.1495,-0.1539,-0.1612,-0.1652,-0.1708,-0.1764,-0.1823,-0.1868,-0.192,-0.1945,-0.1985,-0.1976,-0.1992,-0.2003,-0.1994,-0.2002,-0.1995,-0.1961,-0.1959,-0.1835,-0.1855,-0.1988,-0.1983,-0.1983,-0.1984,-0.1984,0,-0.1432,-0.1483,-0.1555,-0.1647,-0.1671,-0.1722,-0.181,-0.1865,-0.1939,-0.1973,-0.2014,-0.203,-0.2065,-0.2043,-0.2053,-0.205,-0.2031,-0.2019,-0.2018,-0.1875,-0.1832,-0.1933,-0.1989,-0.1988,-0.1988,-0.1988,-0.1987,0,-0.1388,-0.1489,-0.1548,-0.1581,-0.1689,-0.1737,-0.1797,-0.188,-0.1922,-0.2004,-0.2032,-0.2075,-0.2091,-0.2088,-0.2062,-0.2065,-0.2053,-0.2049,-0.1915,-0.1905,-0.2001,-0.1996,-0.2051,-0.2051,-0.2051,-0.2051,-0.2051,0,-0.137,-0.1421,-0.1537,-0.1569,-0.1638,-0.1725,-0.1795,-0.1861,-0.1943,-0.1978,-0.205,-0.2067,-0.2102,-0.2096,-0.2075,-0.1989,-0.206,-0.1918,-0.1893,-0.2026,-0.2024,-0.2003,-0.1998,-0.205,-0.205,-0.2051,-0.2051,0,-0.1303,-0.1384,-0.1454,-0.1577,-0.1618,-0.1665,-0.178,-0.1823,-0.1916,-0.1963,-0.1988,-0.2062,-0.2055,-0.2061,-0.2048,-0.1981,-0.1931,-0.1882,-0.2022,-0.2004,-0.1785,-0.1783,-0.1743,-0.1738,-0.1734,-0.173,-0.1728,0,-0.1272,-0.1303,-0.1433,-0.1471,-0.153,-0.1615,-0.1669,-0.1788,-0.1823,-0.1935,-0.1938,-0.198,-0.2005,-0.1881,-0.191,-0.1853,-0.1828,-0.1795,-0.1796,-0.1773,-0.1753,-0.1757,-0.176,-0.1721,-0.172,-0.1719,-0.1718,0,-0.1202,-0.1257,-0.1312,-0.1387,-0.1456,-0.1517,-0.16,-0.1612,-0.1735,-0.1837,-0.1833,-0.1826,-0.1812,-0.1793,-0.1748,-0.1713,-0.1815,-0.1752,-0.1761,-0.1762,-0.1746,-0.1731,-0.1739,-0.1704,-0.1706,-0.1707,-0.1708,0,-0.1142,-0.1155,-0.1229,-0.1279,-0.1358,-0.1387,-0.1452,-0.1496,-0.1546,-0.1676,-0.1667,-0.1721,-0.1793,-0.1719,-0.1682,-0.1628,-0.1613,-0.1564,-0.1583,-0.1599,-0.155,-0.1508,-0.1365,0,0,0,0,0,-0.1073,-0.1075,-0.1116,-0.1166,-0.1238,-0.1279,-0.1388,-0.1457,-0.1575,-0.153,-0.1593,-0.1577,-0.1542,-0.1574,-0.1485,-0.1609,-0.1611,-0.15,-0.1564,-0.1626,-0.1642,-0.1596,0,0,0,0,0,0,-0.1029,-0.1062,-0.1073,-0.1052,-0.1061,-0.1127,-0.119,-0.1281,-0.1264,-0.139,-0.1376,-0.1471,-0.1454,-0.1553,-0.1446,-0.1452,-0.1459,-0.1539,-0.1535,-0.1617,-0.1632,-0.1645,-0.1603,0,0,0,0,0]},{"header":{"parameterUnit":"m.s-1","parameterCategory":2,"la1":30.2991,"la2":30.254,"lo1":-89.0895,"lo2":-89.0444,"dy":0.0017,"dx":0.0017,"nx":28,"ny":28,"refTime":"2024-06-16T03:00:00:Z","depth":"4","parameterNumber":3,"parameterNumberName":"V-component_of_CURRENTS"},"data":[0,0,0,0,0,0,0,0,0,0,0,0,0,0,0,0,0,0,0,0,0,0,0,0,0,0,0,0,0,0,0,0,0,0,0,0,0,0,0,0,0,0,0,0,0,0,0,0,0,0,0,0,0,0,0,0,0,0,-0.0194,-0.0194,0,-0.0146,-0.0146,-0.0145,-0.0107,-0.0107,-0.0107,-0.0107,0.0015,0.0018,0.0021,0,0,0,0,0,0,0,0,0,0,0,0,0,-0.0208,-0.0208,-0.0194,-0.0194,-0.0193,-0.0146,-0.0146,-0.0145,-0.0108,-0.0107,-0.0107,-0.0107,0.0014,0.0018,0.0021,0,0,0,0,0,0,0,0,0,0,0,0,0,-0.0184,-0.0208,-0.0194,-0.017,-0.0167,-0.0147,-0.0146,-0.0145,-0.0108,-0.0107,-0.0107,-0.0106,0.0013,0.0017,0.0022,0.0042,0,0,0.0035,0.0037,0,0,0,0,0,0,0,0,-0.0186,-0.0184,-0.0174,-0.0171,-0.0168,-0.0133,-0.0106,-0.0079,-0.0108,-0.0129,-0.0107,-0.0106,-0.0029,-0.0021,-0.0012,0.0047,0.0052,0.0036,0.0039,0.0041,0.0042,0,0,0,0,0,0,0,-0.0187,-0.0185,-0.0174,-0.0173,-0.017,-0.0146,-0.0142,-0.0101,-0.0079,-0.0127,-0.0125,-0.0121,-0.0026,-0.0017,-0.0009,0.0054,0.0036,0.004,0.0043,0.0044,0.0141,0.0141,0,0,0,0,0,0,-0.0198,-0.0187,-0.0176,-0.0173,-0.0178,-0.0146,-0.0142,-0.0144,-0.0081,-0.0072,-0.0122,-0.012,-0.0025,-0.0014,-0.0004,0.0029,0.0041,0.0045,0.0047,0.0142,0.0141,0.0141,0,0,0,0,0,0,-0.0199,-0.0198,-0.0178,-0.0179,-0.0175,-0.0147,-0.0149,-0.0143,-0.0134,-0.0078,-0.0067,-0.0118,-0.0024,-0.0011,0.0029,0.0034,0.0047,0.0051,0.0142,0.0142,0.0141,0.0091,0,0,0,0,0,0,-0.02,-0.0199,-0.0206,-0.018,-0.0175,-0.0172,-0.0149,-0.0143,-0.0133,-0.013,-0.0072,-0.006,-0.0022,0.0022,0.0034,0.004,0.0054,0.0142,0.0142,0.0141,0.0093,0.0089,0.0086,0,0,0,0,0,-0.0201,-0.0214,-0.0207,-0.0205,-0.0186,-0.0172,-0.0168,-0.0145,-0.0134,-0.0134,-0.0093,-0.0062,0.0029,0.0026,0.0039,0.0047,0.0142,0.0142,0.0141,0.0095,0.009,0.0086,0,0,0,0,0,0,-0.0225,-0.0211,-0.0202,-0.0211,-0.0196,-0.0167,-0.0167,-0.015,-0.012,-0.0115,-0.0061,-0.0046,-0.0011,0.0023,0.0018,0.0073,0.009,0.0092,0.005,0.0046,0.0043,0.0032,0.0058,0,0,0,0,0,-0.0234,-0.0241,-0.022,-0.0228,-0.0223,-0.0196,-0.0188,-0.0173,-0.0143,-0.013,-0.0089,-0.0044,-0.0002,0.0024,0.0062,0.0096,0.0128,0.0109,0.0105,0.0102,0.0102,0.0154,0.0156,0.014,0.014,0.014,0,0,-0.0246,-0.024,-0.0244,-0.0234,-0.022,-0.0219,-0.019,-0.0184,-0.0176,-0.012,-0.0096,-0.0055,0.0003,0.0037,0.0056,0.0067,0.0121,0.0102,0.0099,0.01,0.0154,0.0156,0.0157,0.014,0.014,0.014,0,0,-0.0274,-0.0269,-0.0283,-0.0273,-0.0258,-0.0241,-0.0242,-0.0215,-0.0196,-0.0169,-0.0126,-0.0084,-0.0025,0.002,0.005,0.0052,0.0097,0.0063,0.0044,0.0095,0.0097,0.0099,0.0128,0.0133,0.0065,0.0065,0.0065,0,-0.029,-0.0303,-0.0284,-0.0292,-0.0288,-0.0255,-0.0265,-0.024,-0.0202,-0.0182,-0.017,-0.0078,-0.0032,0.0025,0.0024,0.0046,0.0073,0.0055,0.0091,0.0093,0.0096,0.0126,0.0132,0.0063,0.0063,0.0063,0.0063,0,-0.0324,-0.0333,-0.0341,-0.0341,-0.0333,-0.0338,-0.0304,-0.029,-0.0264,-0.023,-0.0177,-0.0114,-0.0058,-0.0036,-0.0003,0.0043,0.0053,0.0076,0.0099,0.0095,0.0126,0.0134,0.0059,0.006,0.0061,0.0061,0,0,-0.036,-0.0366,-0.0368,-0.0378,-0.036,-0.0361,-0.0346,-0.0318,-0.0304,-0.0254,-0.0224,-0.0147,-0.0109,-0.0072,-0.0021,0.0028,0.0068,0.0055,0.0059,0.008,0.0165,0.015,0.0157,0.0098,0.0099,0.01,0.0173,0,-0.0392,-0.0426,-0.0412,-0.0437,-0.0452,-0.0417,-0.0408,-0.0375,-0.0332,-0.0295,-0.0213,-0.0167,-0.0122,-0.0096,-0.004,0.0045,0.0087,0.0045,0.017,0.0173,0.0158,0.0165,0.0104,0.0179,0.0181,0.0182,0.0183,0,-0.0425,-0.0446,-0.0482,-0.0492,-0.0494,-0.0499,-0.0479,-0.0461,-0.0391,-0.0356,-0.0288,-0.0225,-0.014,-0.0108,0.0033,0.0003,0.0074,0.0138,0.0143,0.0153,0.0172,0.0189,0.0197,0.0196,0.0195,0.0194,0.0193,0,-0.0465,-0.049,-0.0525,-0.0529,-0.0533,-0.0538,-0.0532,-0.0482,-0.0468,-0.0389,-0.0368,-0.0257,-0.0203,-0.0093,0.0038,0.0037,0.0188,0.0205,0.0257,0.0256,0.027,0.0268,0.0296,0.0296,0.0296,0.0296,0.0296,0,-0.05,-0.0527,-0.0551,-0.057,-0.061,-0.0586,-0.0599,-0.0572,-0.0527,-0.0509,-0.0404,-0.036,-0.0195,-0.0088,0.0026,0.0162,0.0181,0.0254,0.0279,0.0245,0.0238,0.0275,0.0271,0.0299,0.0298,0.0298,0.0297,0,-0.0531,-0.0547,-0.0592,-0.0618,-0.0632,-0.0656,-0.0665,-0.0665,-0.0613,-0.0585,-0.0566,-0.0434,-0.0286,-0.0126,0.006,0.014,0.0275,0.0317,0.0254,0.0274,0.031,0.0303,0.0379,0.0379,0.0379,0.0379,0.038,0,-0.0548,-0.0577,-0.0637,-0.0675,-0.0691,-0.0723,-0.0746,-0.0716,-0.0707,-0.0626,-0.0614,-0.0473,-0.0369,-0.0115,0.0049,0.0261,0.0291,0.0345,0.0341,0.0304,0.0321,0.0314,0.0307,0.038,0.038,0.038,0.038,0,-0.058,-0.0605,-0.0645,-0.0728,-0.0771,-0.0813,-0.0833,-0.0837,-0.0787,-0.075,-0.0639,-0.0494,-0.0327,-0.012,0.0046,0.0197,0.0304,0.0347,0.0348,0.0344,0.0306,0.0321,0.0314,0.038,0.038,0.038,0.038,0,-0.0602,-0.0642,-0.0702,-0.0768,-0.0834,-0.0877,-0.0883,-0.0857,-0.084,-0.074,-0.0706,-0.0508,-0.0387,-0.0154,-0.0001,0.0149,0.0184,0.0218,0.0227,0.0228,0.0164,0.0092,0.0123,0,0,0,0,0,-0.0618,-0.0667,-0.0738,-0.0808,-0.0873,-0.0908,-0.0931,-0.0919,-0.0876,-0.0806,-0.075,-0.0588,-0.0333,-0.0213,-0.0065,-0.0013,0.0194,0.0161,0.0232,0.0383,0.0383,0.0333,0,0,0,0,0,0,-0.0632,-0.0701,-0.0739,-0.0825,-0.0878,-0.094,-0.0958,-0.0931,-0.0874,-0.0808,-0.0664,-0.0572,-0.0318,-0.0416,-0.0067,-0.0021,0.0038,0.0291,0.0293,0.0384,0.0383,0.0383,0.0331,0,0,0,0,0]}]]